This is the latest recevied weather packets stored in our database for station/object W5HKR. If no packets are shown the sender has not sent any weather packets the latest 10 day(s).
| Time | Temp. | Humidity | Pressure | Rain* | Wind** | Luminosity | Snow |
|---|---|---|---|---|---|---|---|
| 1778085205 | 18.33° C | 91% | 990.6 hPa | 0 mm | - | - | - |
| 1778084904 | 25.56° C | 84% | 983.1 hPa | 0 mm | - | - | - |
| 1778084606 | 25.56° C | 85% | 982.9 hPa | 0 mm | - | - | - |
| 1778084515 | 25.56° C | 85% | 982.7 hPa | 0 mm | - | - | - |
| 1778084305 | 25.56° C | 86% | 982.8 hPa | 0 mm | - | - | - |
| 1778084005 | 18.33° C | 91% | 990.6 hPa | 0 mm | - | - | - |
| 1778083705 | 18.33° C | 91% | 990.6 hPa | 0 mm | - | - | - |
| 1778083435 | 18.33° C | 91% | 990.6 hPa | 0 mm | - | - | - |
| 1778083405 | 18.33° C | 91% | 990.6 hPa | 0 mm | - | - | - |
| 1778083105 | 18.33° C | 91% | 990.6 hPa | 0 mm | - | - | - |
| 1778082805 | 25° C | 89% | 982.5 hPa | 0 mm | - | - | - |
| 1778082505 | 25° C | 89% | 982.5 hPa | 0 mm | - | - | - |
| 1778082355 | 18.33° C | 91% | 990.6 hPa | 0 mm | - | - | - |
| 1778082206 | 25° C | 88% | 982.4 hPa | 0 mm | - | - | - |
| 1778081905 | 18.33° C | 91% | 990.6 hPa | 0 mm | - | - | - |
| 1778081606 | 18.33° C | 91% | 990.6 hPa | 0 mm | - | - | - |
| 1778081275 | 18.33° C | 91% | 990.6 hPa | 0 mm | - | - | - |
| 1778081005 | 18.33° C | 91% | 990.6 hPa | 0 mm | - | - | - |
| 1778080704 | 18.33° C | 91% | 990.6 hPa | 0 mm | - | - | - |
| 1778080404 | 24.44° C | 89% | 981.8 hPa | 0 mm | - | - | - |
| 1778080195 | 24.44° C | 89% | 981.7 hPa | 0 mm | - | - | - |
| 1778080104 | 18.33° C | 91% | 990.6 hPa | 0 mm | - | - | - |
| 1778079805 | 18.33° C | 91% | 990.6 hPa | 0 mm | - | - | - |
| 1778079504 | 24.44° C | 89% | 982 hPa | 0 mm | - | - | - |
| 1778079204 | 18.33° C | 91% | 990.6 hPa | 0 mm | - | - | - |
* Rain latest hour (hover to see other rain measurements)
** Current wind speed in m/s (hover to see current wind gust speed)